| time (UTC) | temp F | wind direction | speed knots | gust knots | rain 1hr in | rain 24hr in | rain mn in | humidity % | barometer mb |
| 20260510164512 | 78 | 123 | 0.0 | 5.2 | 0.00 | 0.73 | 0.01 | 74 | 1016.7 |
| 20260510163028 | 78 | 24 | 1.7 | 4.3 | 0.00 | 0.75 | 0.01 | 75 | 1016.9 |
| 20260510161521 | 78 | 113 | 1.7 | 3.5 | 0.00 | 0.79 | 0.01 | 75 | 1016.9 |
| 20260510160007 | 76 | 335 | 0.9 | 6.1 | 0.00 | 0.82 | 0.01 | 76 | 1016.8 |
| 20260510154510 | 77 | 110 | 0.9 | 3.5 | 0.00 | 0.87 | 0.01 | 76 | 1016.7 |
| 20260510153018 | 76 | 122 | 0.9 | 2.6 | 0.00 | 0.91 | 0.01 | 78 | 1016.6 |
| 20260510151516 | 74 | 25 | 2.6 | 5.2 | 0.00 | 0.96 | 0.01 | 80 | 1016.6 |
| 20260510150021 | 75 | 54 | 0.0 | 3.5 | 0.00 | 1.02 | 0.01 | 81 | 1016.7 |
| 20260510144540 | 73 | 126 | 0.0 | 4.3 | 0.00 | 1.16 | 0.01 | 85 | 1016.9 |
| 20260510143027 | 71 | 90 | 1.7 | 4.3 | 0.01 | 1.26 | 0.01 | 86 | 1016.9 |
| 20260510141517 | 70 | 102 | 0.0 | 6.1 | 0.01 | 1.29 | 0.01 | 90 | 1016.9 |
| 20260510140020 | 69 | 136 | 1.7 | 5.2 | 0.01 | 1.33 | 0.01 | 92 | 1017.0 |
| 20260510134522 | 68 | 120 | 0.9 | 3.5 | 0.01 | 1.38 | 0.01 | 93 | 1016.6 |
| 20260510133028 | 67 | 74 | 2.6 | 4.3 | 0.00 | 1.40 | 0.00 | 93 | 1016.5 |
| 20260510131527 | 67 | 74 | 0.9 | 2.6 | 0.00 | 1.50 | 0.00 | 94 | 1016.3 |
| 20260510130018 | 66 | 66 | 0.0 | 2.6 | 0.00 | 1.70 | 0.00 | 94 | 1016.1 |
| 20260510124522 | 66 | 53 | 0.9 | 2.6 | 0.00 | 2.72 | 0.00 | 94 | 1015.9 |
| 20260510123024 | 65 | 110 | 0.0 | 1.7 | 0.00 | 2.96 | 0.00 | 94 | 1015.9 |
| 20260510121511 | 65 | 83 | 0.0 | 4.3 | 0.00 | 2.96 | 0.00 | 94 | 1015.9 |
| 20260510120025 | 65 | 46 | 0.0 | 1.7 | 0.00 | 2.96 | 0.00 | 94 | 1015.4 |
| 20260510114530 | 65 | 136 | 0.0 | 0.9 | 0.00 | 2.96 | 0.00 | 94 | 1015.2 |
| 20260510113009 | 65 | 101 | 0.0 | 2.6 | 0.00 | 2.96 | 0.00 | 94 | 1014.7 |
| 20260510111530 | 65 | 65 | 0.9 | 2.6 | 0.00 | 2.96 | 0.00 | 94 | 1014.2 |
| 20260510110018 | 65 | 33 | 0.0 | 1.7 | 0.00 | 2.96 | 0.00 | 94 | 1014.1 |
| 20260510104520 | 65 | 49 | 0.9 | 2.6 | 0.00 | 2.96 | 0.00 | 94 | 1013.9 |
| 20260510103022 | 65 | 115 | 0.0 | 0.9 | 0.00 | 2.96 | 0.00 | 94 | 1013.6 |
| 20260510101508 | 65 | 124 | 0.0 | 0.9 | 0.00 | 2.96 | 0.00 | 94 | 1013.4 |
| 20260510100012 | 65 | 131 | 0.0 | 1.7 | 0.00 | 2.96 | 0.00 | 94 | 1013.3 |
| 20260510094517 | 65 | 67 | 0.9 | 2.6 | 0.00 | 2.96 | 0.00 | 94 | 1013.1 |
| 20260510093024 | 65 | 357 | 0.9 | 3.5 | 0.00 | 2.96 | 0.00 | 94 | 1013.2 |
| 20260510091525 | 65 | 36 | 1.7 | 4.3 | 0.00 | 2.98 | 0.00 | 94 | 1013.2 |
| 20260510090027 | 65 | 15 | 2.6 | 3.5 | 0.00 | 3.06 | 0.00 | 94 | 1013.3 |
| 20260510084512 | 65 | 21 | 1.7 | 4.3 | 0.00 | 3.19 | 0.00 | 93 | 1013.2 |
| 20260510083037 | 65 | 41 | 0.9 | 3.5 | 0.00 | 3.49 | 0.00 | 94 | 1013.0 |
| 20260510081523 | 65 | 68 | 0.0 | 0.9 | 0.00 | 3.54 | 0.00 | 93 | 1012.8 |
| 20260510080027 | 65 | 68 | 0.0 | 1.7 | 0.00 | 3.54 | 0.00 | 93 | 1012.8 |
| 20260510074514 | 66 | 72 | 0.0 | 1.7 | 0.00 | 3.54 | 0.00 | 93 | 1012.5 |
| 20260510073017 | 66 | 80 | 1.7 | 2.6 | 0.00 | 3.54 | 0.00 | 93 | 1012.6 |
| 20260510071531 | 66 | 41 | 0.0 | 1.7 | 0.00 | 3.54 | 0.00 | 93 | 1012.6 |
| 20260510070028 | 66 | 37 | 1.7 | 3.5 | 0.00 | 3.54 | 0.00 | 93 | 1012.7 |
| 20260510064509 | 66 | 8 | 1.7 | 2.6 | 0.00 | 3.54 | 0.00 | 93 | 1012.9 |
| 20260510063015 | 66 | 20 | 0.0 | 1.7 | 0.00 | 3.54 | 0.00 | 93 | 1012.8 |
| 20260510061526 | 66 | 78 | 0.0 | 0.9 | 0.00 | 3.54 | 0.00 | 93 | 1012.8 |
| 20260510060023 | 67 | 70 | 0.9 | 0.9 | 0.00 | 3.54 | 0.00 | 93 | 1013.0 |
| 20260510054527 | 67 | 44 | 1.7 | 3.5 | 0.00 | 3.89 | 0.00 | 93 | 1012.9 |
| 20260510053014 | 67 | 114 | 0.0 | 0.9 | 0.00 | 4.19 | 0.00 | 93 | 1013.0 |
| 20260510051523 | 67 | 114 | 0.0 | 0.9 | 0.00 | 4.19 | 0.00 | 93 | 1013.2 |
| 20260510050023 | 67 | 114 | 0.0 | 1.7 | 0.00 | 4.19 | 0.00 | 93 | 1013.3 |
| 20260510044530 | 67 | 114 | 0.9 | 1.7 | 0.00 | 4.19 | 4.19 | 93 | 1012.8 |
| 20260510043026 | 67 | 124 | 0.0 | 0.9 | 0.00 | 4.19 | 4.19 | 93 | 1012.9 |
| 20260510041517 | 67 | 124 | 0.0 | 0.9 | 0.00 | 4.19 | 4.19 | 93 | 1012.8 |
| 20260510040021 | 67 | 131 | 0.9 | 1.7 | 0.00 | 4.19 | 4.19 | 93 | 1013.0 |
| 20260510034524 | 67 | 37 | 0.9 | 2.6 | 0.00 | 4.19 | 4.19 | 93 | 1013.5 |
| 20260510033029 | 68 | 4 | 0.9 | 1.7 | 0.00 | 4.19 | 4.19 | 93 | 1013.7 |
| 20260510031506 | 68 | 113 | 0.0 | 1.7 | 0.00 | 4.19 | 4.19 | 93 | 1013.5 |
| 20260510030005 | 68 | 131 | 0.0 | 1.7 | 0.00 | 4.19 | 4.19 | 93 | 1013.3 |
| 20260510024506 | 68 | 217 | 0.0 | 0.0 | 0.00 | 4.19 | 4.19 | 93 | 1013.6 |
| 20260510023007 | 68 | 18 | 0.9 | 4.3 | 0.01 | 4.19 | 4.19 | 93 | 1013.5 |
| 20260510021504 | 68 | 313 | 0.9 | 2.6 | 0.03 | 4.19 | 4.19 | 93 | 1012.8 |
| 20260510020004 | 68 | 155 | 0.0 | 1.7 | 0.04 | 4.19 | 4.19 | 93 | 1012.0 |
| 20260510014504 | 68 | 118 | 0.9 | 3.5 | 0.04 | 4.19 | 4.19 | 93 | 1011.8 |
| 20260510013005 | 67 | 127 | 1.7 | 3.5 | 0.03 | 4.17 | 4.17 | 93 | 1012.0 |
| 20260510011506 | 67 | 297 | 0.0 | 2.6 | 0.01 | 4.16 | 4.16 | 93 | 1012.7 |
| 20260510010004 | 67 | 136 | 0.0 | 2.6 | 0.00 | 4.15 | 4.15 | 93 | 1011.9 |
| 20260510004507 | 67 | 124 | 0.0 | 1.7 | 0.02 | 4.15 | 4.15 | 93 | 1012.3 |
| 20260510003004 | 67 | 101 | 0.0 | 0.9 | 0.06 | 4.16 | 4.15 | 93 | 1012.3 |
| 20260510001507 | 67 | 112 | 0.0 | 1.7 | 0.06 | 4.16 | 4.15 | 93 | 1011.9 |
| 20260510000008 | 67 | 119 | 0.0 | 0.9 | 0.06 | 4.17 | 4.15 | 93 | 1012.5 |
| 20260509234508 | 67 | 118 | 0.0 | 0.9 | 0.04 | 4.16 | 4.13 | 93 | 1012.7 |
| 20260509233007 | 67 | 119 | 0.0 | 0.9 | 0.00 | 4.14 | 4.09 | 92 | 1012.7 |
| 20260509231507 | 67 | 119 | 0.0 | 0.9 | 0.01 | 4.17 | 4.09 | 93 | 1012.9 |
| 20260509230006 | 67 | 119 | 0.0 | 0.0 | 0.03 | 4.19 | 4.09 | 92 | 1012.3 |
| 20260509224508 | 67 | 119 | 0.0 | 0.9 | 0.04 | 4.21 | 4.09 | 92 | 1011.3 |
| 20260509223011 | 67 | 119 | 0.9 | 1.7 | 0.04 | 4.21 | 4.09 | 92 | 1011.3 |
| 20260509221524 | 67 | 126 | 0.0 | 1.7 | 0.03 | 4.21 | 4.08 | 92 | 1011.9 |
| 20260509220009 | 68 | 127 | 0.0 | 0.9 | 0.01 | 4.19 | 4.06 | 92 | 1012.0 |
| 20260509214509 | 68 | 11 | 0.0 | 0.0 | 0.00 | 4.19 | 4.05 | 92 | 1011.8 |
| 20260509213010 | 67 | 11 | 0.0 | 3.5 | 0.00 | 4.23 | 4.05 | 92 | 1011.4 |
| 20260509211510 | 68 | 134 | 0.0 | 2.6 | 0.02 | 4.28 | 4.05 | 92 | 1010.6 |
| 20260509210014 | 67 | 158 | 0.0 | 5.2 | 0.03 | 4.29 | 4.05 | 93 | 1010.6 |
| 20260509204512 | 67 | 139 | 1.7 | 5.2 | 0.07 | 4.30 | 4.05 | 93 | 1010.8 |
| 20260509203012 | 67 | 138 | 0.0 | 1.7 | 0.12 | 4.35 | 4.05 | 93 | 1011.8 |
| 20260509201512 | 67 | 123 | 0.0 | 1.7 | 0.16 | 4.37 | 4.03 | 93 | 1012.3 |
| 20260509200013 | 67 | 153 | 0.0 | 1.7 | 0.21 | 4.40 | 4.02 | 93 | 1012.1 |
| 20260509194516 | 67 | 149 | 0.0 | 2.6 | 0.24 | 4.40 | 3.98 | 93 | 1011.9 |
| 20260509193012 | 67 | 208 | 0.0 | 1.7 | 0.24 | 4.36 | 3.93 | 93 | 1012.8 |
| 20260509191524 | 67 | 251 | 0.0 | 0.9 | 0.24 | 4.30 | 3.87 | 93 | 1012.8 |
| 20260509190012 | 66 | 121 | 0.0 | 1.7 | 0.23 | 4.23 | 3.81 | 93 | 1012.2 |
| 20260509184526 | 66 | 163 | 0.0 | 2.6 | 0.18 | 4.17 | 3.74 | 93 | 1012.6 |
| 20260509183017 | 66 | 169 | 0.0 | 3.5 | 0.16 | 4.12 | 3.69 | 93 | 1012.5 |
| 20260509181518 | 65 | 148 | 2.6 | 7.0 | 0.11 | 4.06 | 3.63 | 93 | 1012.1 |
| 20260509180011 | 65 | 139 | 2.6 | 5.2 | 0.08 | 4.01 | 3.58 | 92 | 1012.8 |
| 20260509174504 | 65 | 124 | 1.7 | 6.1 | 0.09 | 3.99 | 3.56 | 92 | 1012.8 |
| 20260509173011 | 65 | 123 | 0.9 | 2.6 | 0.08 | 3.96 | 3.53 | 92 | 1013.1 |
| 20260509171511 | 64 | 132 | 2.6 | 5.2 | 0.11 | 3.95 | 3.52 | 92 | 1012.8 |
| 20260509170026 | 64 | 161 | 3.5 | 6.1 | 0.12 | 3.93 | 3.50 | 92 | 1012.8 |